Wind_Speed
15 12 10 8 6 4 5 4 5 9 12 9 4 2 3 8 13 13 16 22 24 22 22 22 12 10 7 7 5 5 5 3 2 2 7 12 15 16 19 20 22 23 25
15 15 15 13 12 10 5 3 4 6 8 7 5 6 7 5 3 4 5 4 8 8 10 9 13 10 10 8 6 6 6 6 2 1 9 9 15 15 18 21 21 21 23
14 15 17 18 18 17 15 10 12 12 14 12 12 14 12 10 10 10 11 13 9 13 10 11 9 8 9 7 5 5 6 5 4 3 6 9 15 16 19 19 20 22 21
10 12 13 13 13 13 13 13 13 12 15 18 15 14 16 12 11 11 11 16 9 10 11 11 10 11 10 9 8 8 7 7 7 7 7 12 14 18 16 20 20 20 23
6 7 7 7 8 10 10 9 11 11 12 13 13 13 13 10 9 7 13 11 9 11 11 11 12 12 11 9 9 9 9 9 9 9 9 11 13 15 15 16 18 21 24
2 4 4 5 5 7 7 9 9 10 11 12 13 14 14 12 8 10 8 8 7 9 11 11 8 7 6 5 6 6 7 9 10 8 7 9 14 18 18 18 19 19 8
2 1 1 2 3 5 4 5 8 9 8 10 12 11 11 10 9 8 8 8 8 8 7 6 6 7 6 8 10 11 10 8 7 10 13 14 17 19 21 20 20 18 18
5 3 2 1 1 2 3 4 5 5 6 6 6 6 7 8 8 7 7 6 7 6 6 5 5 4 8 11 14 15 15 14 12 11 13 16 18 20 21 22 22 22 22
8 6 5 4 3 3 3 3 3 3 4 4 3 2 4 6 6 5 3 4 4 5 5 6 6 6 9 12 16 18 19 17 14 13 15 15 17 17 17 18 15 16 12
15 13 11 10 10 9 7 6 5 5 4 4 3 1 1 1 3 4 2 3 3 5 4 5 3 6 10 12 14 15 15 16 17 19 18 15 15 15 15 15 18 15 15
17 16 15 15 14 12 11 11 10 9 7 6 4 4 3 2 2 4 4 4 5 6 8 8 8 10 12 11 11 11 11 15 15 17 17 17 15 15 20 19 20 21 18
19 18 17 15 15 13 12 11 9 8 7 6 5 5 6 4 4 5 5 5 4 8 10 11 10 12 11 11 10 10 11 12 14 15 15 16 19 21 23 22 22 20 21
23 21 20 18 17 15 14 13 12 12 11 9 8 7 6 7 7 6 6 5 6 7 8 8 10 13 11 11 9 9 10 11 14 13 13 16 20 22 22 22 22 20 22
28 25 24 24 22 20 19 17 16 15 14 12 11 9 7 6 8 8 9 9 10 12 13 13 13 13 12 9 10 10 10 13 13 15 16 19 20 21 21 20 23 23 19
30 28 27 26 25 24 23 21 20 17 16 14 12 11 11 11 9 8 9 10 10 11 12 14 13 14 10 10 11 12 12 13 14 15 17 20 19 19 20 21 20 20 15
29 29 29 28 27 26 23 21 18 15 14 14 13 12 12 11 10 10 10 10 11 12 13 13 15 12 10 10 12 12 13 14 14 18 18 19 20 20 21 22 21 19 16
34 32 32 30 30 29 26 24 21 18 16 15 16 15 15 15 14 12 10 11 11 10 13 12 14 9 8 9 10 11 12 13 17 17 18 18 19 20 20 21 18 18 17
37 36 34 32 32 30 29 27 23 21 20 20 19 17 15 14 12 10 10 9 10 10 11 13 13 10 10 11 10 12 13 15 15 17 17 18 19 20 19 18 18 19 17
33 29 32 32 32 31 28 25 24 22 22 20 15 14 16 14 12 11 10 12 12 12 10 10 10 10 9 10 11 13 15 15 15 19 20 19 19 20 18 19 19 20 20
33 33 31 30 28 27 26 26 26 25 23 22 20 18 13 13 14 14 14 12 13 13 11 11 11 11 12 12 13 14 17 19 21 21 22 21 20 20 19 19 19 19 18
31 30 29 27 28 28 28 27 25 24 23 23 21 15 13 15 16 16 17 13 13 14 13 15 15 14 15 15 15 18 21 21 22 23 22 22 21 20 20 21 22 20 19
28 26 25 25 25 25 25 26 25 23 22 21 17 14 12 14 14 13 15 15 15 15 15 16 17 16 17 19 20 20 21 22 21 22 24 24 23 22 22 23 22 20 19
24 22 22 22 24 23 20 22 21 21 20 18 15 14 13 15 15 14 14 15 15 15 17 19 20 20 19 19 18 19 20 22 23 23 24 24 24 24 24 23 23 20 18
20 19 20 21 21 19 18 19 20 18 16 15 15 15 14 13 13 14 15 16 16 17 17 17 18 18 18 19 19 19 20 21 22 24 21 21 25 27 26 24 23 22 19
15 16 17 18 17 15 17 16 16 16 16 15 14 14 14 15 14 15 17 17 16 16 15 16 17 17 17 17 18 19 19 20 20 20 22 25 27 28 31 28 24 19 18
12 15 16 15 15 14 13 15 16 14 13 13 12 12 12 13 14 14 14 15 15 14 15 15 16 16 17 17 17 18 18 18 19 20 20 22 25 25 21 21 19 17 15
Wind_Direction
36 34 32 27 13 332 303 275 250 244 242 217 186 215 268 284 288 278 264 266 259 257 253 247 226 242 197 148 143 128 96 77 59 341 340 323 322 323 315 311 312 315 316
44 55 61 67 69 65 75 113 158 156 157 158 160 129 90 89 109 200 169 82 184 153 155 135 128 122 114 96 86 67 57 50 61 262 306 316 318 319 315 314 319 319 319
45 50 52 56 63 66 69 90 113 117 125 126 120 106 94 89 91 86 97 106 43 97 91 106 94 102 83 77 63 50 26 16 18 339 312 316 321 323 327 324 322 320 326
44 42 43 43 48 56 63 69 77 85 98 103 104 102 94 77 72 75 77 69 77 74 80 79 91 78 81 84 71 49 29 19 8 347 321 315 323 327 325 326 324 323 318
14 33 32 29 37 46 53 57 67 71 77 87 93 94 92 86 74 78 80 103 115 102 89 83 79 77 88 73 57 34 20 11 360 348 330 321 325 333 339 330 324 320 315
337 360 20 23 39 60 75 80 84 91 94 95 93 83 80 85 87 79 91 98 97 84 86 93 90 87 76 40 16 9 15 1 348 329 311 319 316 320 325 323 320 313 310
249 288 359 32 46 55 60 77 79 77 81 80 73 77 84 83 93 90 94 92 89 86 90 99 74 59 28 12 2 359 356 347 332 322 317 319 317 320 318 313 305 299 296
232 239 228 166 127 84 89 81 81 80 74 70 77 74 67 64 79 80 85 84 82 73 62 55 52 54 26 6 350 346 347 341 339 333 321 314 310 305 304 307 302 301 302
222 222 212 206 193 177 169 154 134 122 114 113 107 60 51 47 42 72 96 96 74 56 45 30 10 7 4 360 346 338 331 332 332 324 316 311 311 309 307 314 313 320 315
213 211 207 204 201 200 192 184 178 172 159 164 168 141 101 95 37 54 64 66 47 28 30 28 43 6 350 344 332 328 322 327 326 321 319 320 318 318 317 315 324 312 309
212 212 208 206 206 204 200 197 193 190 186 187 202 205 230 278 314 7 12 2 12 2 356 349 336 333 337 326 324 315 311 318 312 317 323 326 323 324 330 320 309 308 298
215 214 214 210 210 209 210 204 202 202 205 207 215 227 237 259 295 313 326 338 340 332 325 330 323 327 319 320 320 318 318 318 326 329 324 325 328 327 326 322 312 316 312
214 216 217 215 215 215 215 212 211 211 214 215 220 234 249 250 260 292 285 299 301 310 309 317 310 317 315 310 322 323 322 329 335 326 324 321 322 319 319 321 320 313 320
213 216 215 214 213 213 216 219 219 217 217 218 219 228 235 244 243 263 249 257 282 296 299 308 313 310 308 303 314 323 331 337 330 324 319 317 317 320 315 322 319 320 315
220 222 219 218 215 217 221 220 223 231 230 226 229 232 229 240 253 259 247 269 294 300 300 298 305 313 306 311 323 330 329 338 331 327 323 317 313 313 314 317 311 313 293
216 222 222 221 220 222 223 226 232 240 235 234 240 239 241 249 243 239 251 261 279 283 289 288 296 303 305 316 325 327 327 328 325 325 322 318 316 318 317 316 312 307 301
217 218 220 220 221 220 219 220 218 220 232 237 239 245 247 251 248 246 260 269 268 274 277 282 293 293 302 311 315 316 313 313 317 318 316 315 310 309 315 313 307 307 303
226 224 222 219 220 221 220 221 221 219 218 227 234 236 242 244 254 246 254 263 270 280 280 284 301 301 301 304 301 305 307 311 313 315 312 309 308 307 310 307 311 306 299
227 223 226 226 223 224 223 222 221 223 227 234 237 235 234 241 244 252 250 254 266 275 278 283 289 290 287 291 295 303 304 304 306 311 313 309 306 313 303 300 304 310 311
232 227 229 231 225 220 219 219 220 224 229 234 237 241 238 234 239 243 243 259 274 269 278 281 282 283 290 291 296 302 303 302 307 312 315 315 309 309 300 302 304 306 305
232 227 221 222 221 218 217 216 220 223 228 237 244 249 247 242 248 250 245 250 273 281 278 281 282 282 289 287 288 298 303 304 306 309 313 313 311 302 304 302 302 301 301
231 227 213 214 213 213 217 222 227 230 236 242 249 248 244 241 251 256 261 265 273 278 277 278 277 277 279 289 294 294 297 300 301 306 309 310 309 303 303 299 297 297 300
232 224 214 211 216 216 213 225 230 234 240 245 248 248 246 247 249 277 274 279 277 273 279 281 278 281 288 290 291 289 290 295 301 304 304 303 301 299 298 291 292 292 287
228 221 216 215 213 211 213 224 232 238 244 246 246 248 251 253 271 277 280 282 281 283 284 280 276 281 291 292 291 288 288 295 301 303 305 302 300 301 295 289 285 283 277
223 217 214 210 205 204 215 225 233 237 241 246 250 248 257 273 276 283 285 288 287 290 286 282 285 284 290 292 290 289 289 291 295 300 300 296 295 298 291 284 283 279 283
214 209 202 201 200 205 214 225 232 234 241 250 259 268 274 279 284 286 287 289 288 288 290 288 286 287 286 294 295 296 291 291 292 295 292 290 292 290 291 287 287 279 270
Height
749 745 742 738 736 736 736 737 737 738 739 742 741 742 742 744 745 746 747 747 748 748 748 749 748 747 747 749 750 752 754 753 754 754 754 756 755 754 755 754 753 752 751
753 749 746 742 739 738 738 737 738 738 739 739 739 741 741 743 744 745 744 745 743 743 746 743 742 744 747 748 750 752 753 754 755 755 754 752 753 753 752 750 748 748 746
757 753 750 747 744 744 742 741 740 741 738 738 740 741 743 745 745 746 745 743 751 744 746 743 745 746 747 748 750 752 753 753 754 754 754 753 751 750 748 747 746 743 740
758 756 754 752 751 748 746 745 743 742 742 740 743 746 742 747 748 749 748 740 750 749 747 748 751 749 749 751 752 753 753 753 753 754 753 751 751 748 747 744 741 739 736
760 758 757 756 754 753 751 750 748 746 746 745 747 747 746 749 751 751 743 750 755 754 753 753 752 751 753 753 753 754 753 753 753 752 752 751 749 747 746 743 739 736 732
759 759 759 758 756 755 754 753 751 752 751 750 750 748 748 751 752 752 753 755 756 754 754 755 755 755 754 754 754 755 753 752 752 752 751 750 747 747 744 741 738 735 729
758 758 757 757 756 756 755 754 753 753 752 751 750 751 753 754 755 755 756 756 757 756 757 758 756 755 754 754 755 753 753 753 752 752 749 748 745 744 742 738 736 732 727
757 757 757 756 756 756 756 755 755 754 753 753 753 755 755 755 754 755 756 757 758 759 758 758 756 756 756 755 754 753 752 752 751 750 749 746 744 741 738 735 730 727 722
756 756 756 756 757 756 756 756 756 756 755 756 757 756 756 757 756 756 757 758 759 758 759 758 757 757 757 756 753 752 751 750 749 747 747 744 742 738 735 731 726 722 716
750 750 751 752 751 752 753 754 754 754 754 755 756 757 757 758 759 758 757 757 757 757 758 758 758 758 757 756 755 753 751 749 747 745 743 740 738 735 732 728 724 721 718
745 746 746 748 749 750 751 751 751 752 753 754 756 756 757 758 758 757 757 757 757 757 757 757 756 756 755 756 754 752 751 749 746 743 739 737 735 731 727 724 722 720 717
741 743 745 746 748 749 750 751 752 753 754 754 755 755 756 756 756 756 756 756 757 756 756 756 755 756 756 754 753 751 750 747 744 740 738 735 730 727 724 721 718 715 712
737 739 742 743 744 746 748 749 749 749 750 750 751 751 751 752 753 754 755 755 755 755 755 755 754 753 752 751 749 748 746 744 741 738 735 732 729 726 722 718 714 709 704
731 732 734 736 738 740 741 742 744 745 746 746 746 747 748 749 750 752 752 753 753 753 753 752 752 751 750 749 747 746 744 741 738 736 734 732 728 724 720 716 711 706 702
726 728 730 731 733 735 736 737 739 741 742 742 743 744 745 746 747 748 749 749 749 749 749 748 747 747 746 745 744 742 741 738 736 734 732 729 725 721 717 713 709 704 701
719 721 724 726 729 731 733 735 737 738 739 740 741 742 742 743 744 745 746 746 747 747 746 745 744 744 742 740 739 738 738 736 734 732 729 726 722 719 714 710 707 703 699
707 709 713 717 721 724 727 729 731 733 734 736 737 738 739 739 739 740 741 742 742 743 742 742 740 739 738 738 737 736 735 734 732 730 727 724 721 717 713 709 703 701 697
699 701 704 708 713 717 720 722 725 727 729 730 731 732 734 735 736 737 738 739 739 739 740 739 738 737 736 736 735 734 733 731 729 727 724 721 718 715 711 707 702 698 694
695 699 700 702 704 709 714 717 720 721 722 724 726 727 729 731 732 734 735 734 734 735 735 735 735 734 733 733 732 730 729 727 725 723 720 717 715 712 708 704 700 696 690
686 688 694 699 702 704 708 711 712 714 716 717 719 722 725 727 727 728 729 730 730 730 731 731 731 730 729 728 727 726 724 722 720 718 715 712 710 708 704 700 697 692 688
680 682 685 689 694 698 701 704 707 709 711 712 714 718 720 721 721 722 723 724 725 725 725 726 725 725 724 723 722 721 720 717 715 712 710 708 706 703 700 696 692 688 685
675 679 683 685 688 693 698 701 703 706 708 709 711 713 715 716 716 717 717 718 718 719 720 720 719 719 719 718 717 716 715 713 710 708 706 703 701 698 695 692 688 684 681
672 676 679 680 684 688 692 697 701 703 705 706 708 709 711 711 712 712 712 712 713 713 713 713 713 713 713 712 711 711 710 708 706 704 701 698 696 693 691 687 684 680 678
669 673 677 679 681 684 689 695 698 701 702 703 704 705 706 707 708 708 708 708 708 708 707 707 708 707 707 706 705 705 704 702 700 698 696 693 690 687 684 681 678 675 673
669 671 674 678 681 683 687 691 695 697 699 700 701 702 703 704 704 705 704 704 703 703 702 702 702 702 701 700 699 698 697 696 695 693 691 688 685 682 678 675 672 670 669
669 671 673 678 680 683 685 688 690 693 695 696 697 698 700 700 700 700 700 700 699 698 697 697 697 696 695 694 693 691 691 690 689 687 685 682 680 676 673 670 667 666 665